Vertical_Velocity
1 2 -2 -1 2 -4 3 -16 -6 25 0 -1 -1 -6 -8 -1 -6 -6 1 1 -8 1 1 -2 -4 -3 1 8 1 -4 -0 1 4 3 6 -0 2 0 -2 3 -1 2 1 2 1 1 3 -0 -1
-1 2 -2 4 -0 -4 -10 6 1 1 -1 -5 -4 -6 -6 1 -6 -5 -8 0 -9 -2 0 -0 1 -1 -1 -1 3 6 -0 -3 -2 2 -1 2 3 1 -1 -2 -1 2 3 -5 1 -1 2 1 -5
3 2 3 -3 -1 -13 -18 7 38 1 -3 -4 1 0 7 -12 1 -2 1 -3 -2 -7 -7 3 -0 4 -1 -2 3 4 4 3 1 -0 -2 -1 -1 1 -3 3 -3 -3 5 -3 -0 0 -0 1 -2
6 1 3 -5 -5 -17 -17 -10 59 1 -5 -11 -14 -9 -3 -2 -9 -1 0 -4 0 -4 -8 4 4 1 -1 -1 -2 -3 -2 10 2 -0 5 1 2 3 1 -4 -1 2 1 6 -3 1 7 -2 -1
-1 5 -1 -3 -8 -9 -3 21 24 -0 0 -1 -4 -5 -5 1 -6 -5 2 -2 -5 5 -5 -7 3 3 2 6 -4 4 4 8 9 3 1 3 3 6 -4 -3 -1 3 -0 3 -3 1 2 1 -3
2 4 -3 -4 -13 -5 -7 12 24 5 1 -2 -2 -11 9 -3 -5 -2 1 -6 -1 -1 -3 -2 -0 4 5 7 14 -2 7 17 12 12 -2 5 9 5 -12 -0 -0 1 0 -1 3 2 -4 2 4
-4 -1 -5 -1 -13 -6 10 45 5 3 2 -6 -7 -1 -6 -7 -5 -4 -5 -0 -2 0 -1 0 -0 1 4 1 8 -2 14 12 96 68 5 6 12 3 -3 -2 1 1 -1 2 2 -2 2 3 2
-0 6 -2 -3 -9 -44 13 18 -10 -11 -7 -1 0 -1 -7 -4 -5 -7 -8 2 2 4 6 0 1 0 -2 1 -1 -2 8 10 -37 22 34 21 24 6 -5 -2 -16 -1 -6 1 -1 1 9 3 -4
9 6 -6 -18 -4 -13 14 18 6 7 -0 -10 -13 -15 -0 4 6 -3 -6 1 -2 -5 1 -3 -1 -1 0 6 -2 11 14 8 -40 -12 26 33 19 -1 -6 -13 2 5 -5 -1 4 -1 -1 1 1
-0 -0 -16 -2 -7 -3 4 48 10 4 2 -4 6 -4 1 -0 -6 0 -7 -5 -3 -5 1 -3 -3 1 0 4 2 -6 -3 -8 -6 -29 -20 27 9 -3 -0 -3 0 4 1 1 2 4 -0 1 1
-3 -23 -6 -22 3 19 -1 18 23 14 4 6 4 -1 -3 -3 2 -0 -7 2 1 -1 3 -5 -2 -0 2 -1 2 -3 8 5 11 -26 -3 16 10 1 -1 -2 -11 4 3 -4 -0 -1 5 -8 4
-1 -2 -3 -16 -2 -3 -3 13 13 8 -0 10 6 4 3 -3 -7 -2 -2 -2 1 0 3 -4 -4 -2 -1 -0 -4 -2 -2 2 -0 -15 -13 10 6 1 -3 -3 1 -2 4 -3 4 -4 2 -2 3
3 4 0 -7 0 -3 11 2 5 -3 -2 19 -6 4 6 -2 -7 -2 -2 -4 -3 -2 -0 -2 -7 -1 2 0 0 -1 3 -1 -4 3 5 -4 -5 -3 -2 -6 2 -4 3 -1 3 0 -1 -3 4
2 4 -9 3 1 2 12 -7 18 -14 -3 -8 3 0 -4 3 -6 -5 -1 3 1 -0 0 1 2 -3 1 -1 -1 -2 -4 -2 -1 -2 -13 3 8 -4 5 -6 -0 3 -0 0 3 4 -1 1 5
5 2 6 -3 -19 -11 18 -9 -4 3 -14 -7 11 1 -4 -1 -2 -6 -5 0 3 1 2 -0 -0 -6 1 3 -1 -3 -1 3 6 3 -0 6 2 -4 -4 4 -4 -2 2 0 0 -0 -0 -2 6
1 6 -0 -10 3 -9 25 -27 -15 -4 3 0 13 6 -3 -12 3 -3 -6 -3 1 -1 1 2 1 5 -5 4 -1 -2 2 -2 -0 -3 -5 -3 -3 -8 8 5 -2 4 -2 1 -1 2 -0 -3 6
0 -8 -3 -14 -10 -4 9 -6 -11 -7 4 13 19 4 -2 -11 -6 -2 -5 -2 1 -2 2 2 3 -1 4 1 7 -3 -10 -4 2 3 10 11 2 -8 -1 10 -0 0 -4 -4 -1 3 -2 -1 3
-11 -1 -7 -17 -10 8 -0 -9 -8 -2 2 8 -6 -7 -4 1 -5 -4 -3 2 -1 -1 1 0 2 -0 1 -2 1 1 5 1 16 -0 1 3 -1 1 5 3 -4 4 -3 0 -1 0 -2 4 1
-3 8 2 -9 -14 35 35 -4 2 -1 13 -6 -4 -12 5 -9 -3 -3 -6 -0 -3 1 1 0 1 1 0 3 -3 -12 3 3 4 11 14 7 -3 1 -0 -1 -4 -10 11 4 4 -2 2 -1 -3
-0 6 -14 -8 2 7 9 0 8 3 2 27 0 -2 3 6 -4 -8 -6 -3 -0 -0 -0 -0 1 1 1 3 3 0 2 -9 -0 2 16 -1 -4 2 8 -3 -6 -1 5 1 4 3 -3 -1 -3
-2 1 -7 2 -2 6 8 -6 -4 -9 -12 -5 23 1 11 -2 -5 -7 -8 -2 -1 -0 0 -0 -1 -0 -1 0 3 1 8 2 2 -6 16 -3 -5 3 0 -7 -3 -3 -7 -2 3 4 -0 -1 -7
13 4 1 1 16 -3 29 -14 -3 -2 -6 -3 -1 14 5 -6 -3 -8 -2 -6 -1 3 -1 0 -2 0 -3 -3 1 2 0 -1 -11 1 9 8 4 -2 5 -1 1 -1 2 -0 0 0 -4 -12 -9
-4 10 19 6 -6 20 -12 18 -35 7 1 1 -3 4 -0 0 -5 -9 -2 0 -5 2 1 -1 -1 -0 -1 -4 -3 -1 -3 -5 -6 -7 8 -3 -3 5 -3 -3 3 5 -2 0 -0 -2 -5 -5 -9
-11 -6 -17 -12 26 7 -9 17 -16 -18 -8 15 43 10 4 9 -8 1 3 -1 -5 2 1 -1 -0 -1 -0 -2 -4 -2 -1 -3 -4 -2 -4 -1 2 4 0 1 2 0 -4 -7 -4 2 3 -11 1
10 -2 -3 6 6 -5 -10 10 -29 -22 -4 10 9 7 6 21 -2 -1 -11 -3 -1 1 -0 0 2 -0 -3 -1 -1 -2 -1 0 -0 2 2 -3 0 -3 2 1 -0 1 2 3 -3 -0 -2 -12 -0
-2 -0 -7 -1 -2 -5 -3 -2 -33 -24 -4 10 19 4 0 12 6 -1 -1 -7 -4 -3 2 -3 -2 2 1 -3 -1 3 3 1 2 0 -1 -3 -5 -3 -2 1 -0 -2 -1 -2 -1 -1 -0 1 15
-11 8 -2 1 -6 2 -1 -3 -24 12 16 -5 7 -2 -17 1 -1 -11 -3 -3 -5 -2 5 0 -4 -2 -1 -0 -2 -2 0 1 2 3 -1 -1 -1 -4 1 -2 1 2 1 -1 -2 -1 -1 -3 2
15 1 2 -0 1 0 -3 -3 4 5 18 8 9 22 14 12 16 11 -2 -9 -6 -4 -2 6 2 -2 -3 -2 -3 -4 -5 -3 -2 -3 -1 -0 1 -0 -4 -3 -3 -2 -3 -0 -2 -3 4 -1 -0
-14 13 -5 -2 5 1 -1 -2 13 9 18 7 12 15 19 18 10 16 3 -4 -4 -9 -2 0 4 2 0 -2 1 2 0 -2 -3 -1 -1 1 2 0 -1 1 -2 -3 -4 -6 -6 -4 0 -3 2
28 -0 -6 -0 -1 4 6 -15 5 22 19 15 14 4 10 5 3 11 -8 -6 10 -2 -3 1 4 5 6 7 -1 0 2 -0 -1 -4 -3 -3 0 -1 -0 -2 -4 -1 -0 -3 -6 -5 -1 -3 -4
Height
3131 3130 3129 3129 3134 3128 3123 3119 3121 3121 3118 3119 3118 3121 3125 3127 3127 3130 3128 3127 3126 3128 3128 3129 3130 3129 3129 3131 3132 3133 3134 3135 3137 3139 3141 3142 3143 3145 3145 3147 3148 3150 3153 3155 3156 3157 3159 3160 3160
3128 3127 3127 3127 3127 3126 3121 3117 3118 3117 3115 3117 3119 3121 3123 3124 3123 3125 3127 3126 3123 3123 3126 3126 3126 3126 3127 3128 3129 3129 3130 3132 3134 3136 3138 3141 3143 3144 3144 3145 3147 3148 3151 3154 3155 3156 3158 3160 3161
3125 3124 3126 3123 3121 3118 3118 3118 3120 3115 3115 3116 3119 3121 3121 3122 3123 3124 3124 3124 3122 3116 3120 3121 3121 3121 3123 3125 3126 3127 3128 3129 3131 3134 3136 3138 3140 3143 3143 3144 3145 3148 3150 3153 3154 3156 3157 3159 3161
3122 3122 3122 3119 3115 3113 3113 3114 3119 3115 3114 3113 3115 3119 3119 3119 3121 3122 3121 3121 3120 3115 3112 3116 3116 3117 3118 3121 3122 3124 3126 3127 3129 3131 3133 3134 3136 3139 3142 3143 3144 3146 3148 3151 3154 3156 3157 3159 3159
3117 3118 3117 3114 3112 3109 3111 3114 3116 3112 3112 3111 3113 3115 3116 3116 3117 3118 3119 3117 3117 3114 3109 3109 3111 3112 3113 3115 3117 3120 3122 3123 3125 3127 3130 3131 3134 3136 3140 3140 3142 3145 3147 3149 3152 3155 3157 3159 3157
3113 3115 3113 3111 3109 3108 3110 3109 3112 3109 3109 3111 3111 3113 3111 3112 3113 3115 3115 3113 3111 3110 3105 3105 3106 3107 3108 3111 3111 3115 3118 3118 3120 3121 3127 3130 3130 3132 3137 3137 3140 3142 3146 3149 3151 3154 3156 3157 3158
3108 3110 3108 3108 3107 3105 3106 3111 3106 3105 3105 3106 3108 3109 3107 3106 3111 3111 3111 3109 3104 3103 3100 3099 3100 3101 3103 3105 3106 3106 3110 3107 3105 3108 3119 3125 3127 3128 3132 3135 3139 3142 3144 3148 3151 3152 3155 3156 3157
3106 3108 3103 3105 3104 3102 3103 3106 3104 3104 3104 3105 3106 3107 3104 3104 3105 3105 3106 3103 3100 3094 3091 3091 3093 3096 3097 3099 3100 3102 3105 3105 3105 3105 3112 3120 3115 3125 3130 3134 3137 3140 3143 3146 3148 3153 3153 3156 3156
3101 3103 3099 3100 3102 3097 3104 3106 3102 3101 3100 3101 3103 3103 3103 3103 3105 3104 3102 3099 3093 3087 3085 3086 3089 3091 3091 3094 3094 3098 3102 3103 3103 3107 3105 3116 3120 3123 3128 3131 3136 3138 3141 3145 3148 3150 3151 3154 3156
3094 3092 3092 3097 3096 3097 3102 3105 3101 3100 3098 3099 3100 3096 3098 3099 3100 3100 3097 3093 3088 3085 3084 3084 3086 3087 3087 3089 3091 3094 3097 3099 3099 3101 3101 3114 3119 3123 3125 3129 3134 3137 3140 3142 3145 3147 3151 3153 3156
3088 3085 3090 3091 3091 3097 3097 3101 3101 3097 3096 3098 3096 3093 3094 3095 3096 3097 3096 3092 3088 3083 3083 3083 3083 3083 3082 3083 3086 3089 3092 3095 3097 3097 3095 3110 3115 3119 3122 3127 3131 3136 3136 3140 3143 3145 3149 3153 3154
3083 3083 3086 3086 3090 3092 3092 3094 3095 3095 3095 3095 3095 3093 3092 3092 3092 3093 3092 3089 3085 3081 3081 3081 3080 3080 3079 3080 3081 3083 3084 3089 3088 3091 3096 3105 3112 3116 3121 3126 3131 3134 3136 3139 3142 3146 3149 3151 3153
3078 3080 3083 3084 3085 3087 3088 3089 3089 3089 3092 3092 3090 3091 3088 3087 3088 3088 3087 3085 3082 3079 3077 3076 3077 3078 3078 3079 3079 3079 3080 3083 3085 3085 3093 3103 3109 3113 3118 3121 3128 3132 3134 3137 3141 3145 3147 3149 3152
3076 3078 3077 3078 3080 3082 3083 3083 3085 3086 3088 3089 3086 3086 3086 3086 3084 3083 3084 3083 3081 3077 3074 3072 3072 3074 3074 3076 3077 3077 3077 3081 3085 3091 3096 3102 3105 3111 3115 3121 3126 3130 3132 3136 3140 3143 3144 3149 3152
3070 3071 3071 3070 3073 3075 3079 3077 3077 3081 3084 3084 3083 3081 3081 3082 3080 3080 3079 3079 3078 3075 3072 3068 3066 3068 3071 3072 3075 3076 3077 3081 3085 3088 3093 3099 3104 3109 3115 3120 3122 3127 3130 3134 3137 3141 3143 3147 3151
3063 3064 3063 3063 3069 3070 3074 3067 3073 3076 3077 3077 3079 3077 3076 3077 3077 3076 3076 3075 3075 3072 3069 3066 3063 3063 3067 3068 3072 3074 3077 3079 3082 3085 3088 3095 3100 3105 3110 3114 3119 3124 3127 3131 3135 3139 3143 3146 3150
3059 3058 3060 3061 3063 3065 3067 3063 3067 3070 3071 3071 3072 3073 3072 3072 3073 3074 3073 3072 3072 3070 3067 3064 3061 3060 3063 3065 3066 3070 3074 3077 3079 3082 3086 3091 3096 3101 3105 3108 3115 3120 3124 3128 3133 3137 3140 3144 3148
3055 3057 3057 3057 3057 3061 3060 3058 3061 3065 3066 3066 3067 3070 3068 3067 3069 3070 3071 3070 3069 3067 3066 3062 3059 3058 3060 3065 3067 3067 3068 3070 3073 3076 3082 3087 3093 3095 3101 3105 3111 3117 3121 3126 3130 3134 3137 3142 3146
3052 3054 3052 3052 3054 3059 3056 3054 3054 3059 3061 3061 3063 3064 3063 3063 3066 3066 3067 3067 3065 3064 3063 3061 3058 3056 3056 3058 3061 3065 3065 3064 3066 3072 3077 3081 3087 3091 3097 3100 3106 3111 3117 3123 3127 3132 3135 3138 3142
3049 3049 3046 3047 3050 3052 3051 3049 3052 3053 3054 3056 3056 3057 3059 3060 3061 3062 3064 3064 3063 3061 3060 3059 3057 3056 3055 3055 3056 3057 3057 3058 3061 3066 3072 3079 3083 3089 3093 3097 3102 3108 3112 3118 3123 3127 3131 3134 3138
3044 3045 3045 3047 3046 3049 3048 3045 3045 3047 3048 3050 3052 3053 3054 3054 3056 3058 3061 3062 3061 3060 3058 3057 3056 3055 3053 3053 3054 3054 3054 3056 3058 3063 3069 3075 3080 3085 3090 3093 3098 3103 3109 3112 3118 3124 3127 3131 3133
3040 3043 3044 3044 3046 3044 3044 3043 3041 3042 3042 3043 3045 3048 3050 3050 3051 3055 3056 3060 3059 3058 3057 3056 3055 3054 3052 3050 3052 3053 3055 3055 3055 3060 3066 3072 3077 3082 3087 3090 3096 3099 3104 3111 3117 3121 3124 3125 3131
3036 3041 3042 3042 3041 3041 3038 3040 3032 3035 3035 3036 3038 3041 3043 3043 3046 3049 3052 3056 3057 3057 3055 3054 3053 3053 3052 3050 3050 3051 3053 3054 3056 3062 3067 3071 3075 3079 3084 3089 3093 3097 3102 3109 3113 3117 3119 3124 3128
3036 3036 3036 3038 3040 3035 3034 3037 3028 3028 3029 3031 3034 3034 3038 3039 3042 3046 3050 3053 3055 3055 3055 3053 3052 3052 3051 3050 3050 3051 3052 3054 3056 3060 3064 3070 3073 3078 3080 3084 3089 3094 3100 3104 3110 3114 3117 3121 3124
3033 3037 3042 3036 3035 3030 3032 3032 3027 3023 3025 3029 3027 3026 3032 3036 3038 3042 3046 3049 3051 3052 3052 3052 3051 3051 3052 3051 3050 3050 3052 3055 3057 3061 3063 3066 3070 3072 3076 3080 3085 3089 3095 3100 3103 3108 3111 3114 3117
3027 3032 3036 3030 3029 3026 3026 3022 3020 3019 3023 3027 3029 3027 3029 3032 3035 3039 3043 3046 3048 3049 3050 3050 3050 3049 3051 3051 3051 3051 3051 3053 3056 3058 3061 3064 3066 3070 3073 3077 3082 3086 3090 3094 3098 3101 3105 3109 3112
3021 3022 3030 3033 3030 3026 3020 3018 3020 3017 3020 3025 3025 3024 3027 3031 3033 3036 3039 3042 3044 3046 3048 3048 3049 3049 3049 3050 3051 3051 3052 3053 3054 3056 3058 3060 3062 3066 3069 3073 3075 3080 3084 3088 3093 3096 3098 3102 3107
3018 3022 3027 3030 3028 3028 3016 3017 3015 3015 3018 3019 3022 3024 3027 3030 3032 3033 3036 3039 3041 3042 3044 3046 3047 3048 3048 3048 3050 3052 3052 3053 3053 3054 3056 3058 3060 3061 3063 3067 3071 3075 3078 3081 3085 3088 3092 3094 3097
3016 3017 3021 3024 3024 3019 3017 3015 3016 3015 3016 3016 3019 3024 3027 3029 3031 3034 3033 3035 3037 3039 3040 3041 3043 3045 3046 3047 3047 3049 3051 3052 3052 3054 3055 3056 3058 3059 3061 3063 3065 3069 3073 3076 3079 3082 3084 3086 3090
3011 3012 3016 3017 3019 3018 3017 3015 3012 3015 3018 3017 3017 3020 3022 3022 3025 3027 3028 3029 3034 3035 3037 3038 3039 3040 3042 3045 3045 3045 3046 3048 3051 3052 3054 3055 3056 3058 3060 3061 3062 3064 3066 3068 3070 3072 3074 3077 3080